Showing default

ARVAKER-3, 64566

Orbit data source: Space-Track

ARVAKER-3, 64566 is a payload satellite owned by NSC (NO) in SSO that was launched on Mon, 23 Jun 2025 UTC via an FALCON 9 launch vehicle from the Air Force Western Test Range (AFWTR). Payload-class satellites include a variety of spacecraft equipped with specific instruments for various scientific and technological missions. These include communications satellites like Starlink; space stations such as the ISS; scientific satellites like the Hubble; Earth observation satellites from companies like Planet Labs, Umbra, and HawkEye 360; GPS; miniature CubeSats for education and research; and military/defense satellites.

Loading next visibility...
Identifier
64566, 2025-135AQ
Orbit
SSO
Country
Flag of NONO / NOR
Related business
Manufacturer
NanoAvionics
Mission
Operational Commercial Sigint
Bus & Motor
MP42, Unknown motor
Mass
~100 kg wet, ~100 kg dry
Launch date (UTC)
2025-06-23 (10 months ago)
Launch vehicle
FALCON 9
Launch site
Air Force Western Test Range (AFWTR)
Object type
Payload
Rocket body
Debris
Shape & HBR
Box + 2 Pan, 0.5 m
Radar Cross Section
0.146 m², Medium (>0.1 m² and < 1m²)

Expand to show TLE details & history
Last TLE update: 5 hours ago

TLE from 5 hours ago
0 ARVAKER-3
1 64566U 25135AQ  26120.18759376  .00002664  00000-0  25896-3 0  9991
2 64566  97.7664 234.8724 0003298 102.5637 257.5951 14.93419743 46711
Epoch: 2026-04-30T04:30Z
TLE epoch observation values (Epoch: 2026-04-30T04:30:08.100Z)
Latitude
-0.00011°
Longitude
-50.79913°
Altitude
590.82 km
Speed
7.564 km/s
True Right ascension
15h 39m 29s
True Declination
0° 00' 00"
Sunlit
Object was in full shadow at epoch
Visualization orbit readout
Latitude
Unknown
Longitude
Unknown
Altitude
Unknown
Speed
Unknown
Apparent Right ascension
Unknown
Apparent Declination
Unknown
Sunlit
N/A
Visualization observer readout
Local Sidereal Time
16:39:49
Azimuth
Unknown
Elevation
Unknown
Doppler factor
Unknown
Orbital elements
Apogee altitude
586.595 km
Perigee altitude
582.003 km
Semi-major axis
6,962.436 km
Eccentricity
0.00033
Inclination
97.7664°
RAAN
234.8724°
Arg. of periapsis
102.5637°
True anomaly
257.55819°
Mean anomaly
257.5951°
Eccentric anomaly
257.57665°
Mean motion
3.73595 °/min
Orbital period
96.36 mins
BSTAR
0.00025896
Loading maneuver chart data...
Computing Atmospheric mass density...
Loading historical data...
Loading historical data...
Loading historical data...
Loading historical data...
Loading historical data...
Loading historical data...
Loading historical data...

Documentation

Showing up to 5 results
|